Location: Bailleul
(50.3375°N, 2.8513°E)
Time: 14:43:51
(UTC+00:00)

Cosmos 1544 Rocket - Pass Details

Date: 16 June 2021
Orbit: 604 x 631 km, 82.5° (Epoch: 31 July)

Event Time Altitude Azimuth Distance (km) Brightness Sun altitude
Rises 21:58:03 0° 345° (NNW) 2,939 8.9 -12.3°
Reaches altitude 10° 22:00:22 10° 339° (NNW) 2,025 7.7 -12.4°
Maximum altitude 22:04:39 46° 267° (W) 856 4.4 -12.7°
Enters shadow 22:08:30 12° 196° (SSW) 1,852 5.5 -13.0°
